Regional Weather Roundup
Issued by NWS Sterling, VA

Home | Current Version | Previous Version | Graphics & Text | Print | Product List | Glossary On
Versions: 1 2 3 4 5 6 7 8 9 10 11 12 13 14 15 16 17 18 19 20 21 22 23 24 25 26 27 28 29 30 31 32 33 34 35 36 37 38 39 40 41 42 43 44 45 46 47 48 49 50
000
ASUS41 KLWX 282210
RWRLWX

REGIONAL WEATHER ROUNDUP
NATIONAL WEATHER SERVICE BALTIMORE MD/WASHINGTON DC
500 PM EST SUN DEC 28 2014

Note: "FAIR" indicates few or no clouds below 12,000 feet
with no significant weather and/or obstructions to visibility.
 TC=TEMPERATURE CELSIUS

 * =Non NWS site. Station does not report precipitation (e.g. rain,
    snow, etc.), thunder, or fog.

DCZ001-MDZ009-015-VAZ040>042-051-053>054-282300-
WASHINGTON METRO

CITY           SKY/WX    TMP DP  RH WIND       PRES   REMARKS
WASHINGTON NAT LGT RAIN  54  45  71 SW5       30.02R
DULLES         LGT RAIN  49  46  90 SW6       30.01R
ANDREWS AFB    DRIZZLE   51  46  83 SW6       30.01R
FT BELVOIR     LGT RAIN  50  47  92 SE1       30.03R
QUANTICO       LGT RAIN  49  46  90 CALM      30.03R
COLLEGE PARK*  CLOUDY    52  50  93 CALM      30.01R
LEESBURG*      LGT RAIN  52  50  93 W3        30.02R
MANASSAS*      CLOUDY    52  50  93 CALM      30.02R
GAITHERSBURG*  CLOUDY    50  45  81 CALM      30.04R

$$

MDZ006>007-011-014-282300-
BALTIMORE METRO

CITY           SKY/WX    TMP DP  RH WIND       PRES   REMARKS
BWI AIRPORT    LGT RAIN  51  47  86 S5        29.99R
MD SCIENCE CTR   N/A     55  46  71 MISG      29.99R
ANNAPOLIS      LGT RAIN  48  44  86 CALM      30.00R
FORT MEADE*    CLOUDY    50  46  87 CALM      30.03R

$$

MDZ012-015-019>023-282300-
MARYLAND EASTERN SHORE

CITY           SKY/WX    TMP DP  RH WIND       PRES   REMARKS
OCEAN CITY     CLOUDY    54  45  71 CALM      29.99R
SALISBURY      LGT RAIN  57  43  59 W3        30.01R
BAY BRIDGE AP* DRIZZLE   50  45  81 CALM      30.01R
CAMBRIDGE*     CLOUDY    52  48  87 CALM      30.02R
EASTON*        RAIN      50  50 100 CALM      30.05R

$$

MDZ017>025-282300-
SOUTHERN MARYLAND

CITY           SKY/WX    TMP DP  RH WIND       PRES   REMARKS
PATUXENT RIVER LGT RAIN  51  45  79 NW6       30.01R
ST INIGOES     LGT RAIN  53  43  68 CALM      30.01R
LEONARDTOWN*   CLOUDY    50  46  87 CALM      30.03

$$

MDZ003>005-282300-
NORTH CENTRAL MARYLAND

CITY           SKY/WX    TMP DP  RH WIND       PRES   REMARKS
FREDERICK*     CLOUDY    54  43  66 VRB3      30.04
HAGERSTOWN APT CLOUDY    49  37  63 NW10      30.02R
WESTMINSTER*   RAIN      52  45  76 W7        30.00R

$$

MDZ501>502-282300-
WESTERN MARYLAND

CITY           SKY/WX    TMP DP  RH WIND       PRES   REMARKS
OAKLAND*       FOG       34 N/A N/A NW6       29.99S VSB<1/4
CUMBERLAND*    CLOUDY    46  37  71 N8        30.07S

$$

VAZ025>031-282300-
SHENANDOAH VALLEY

CITY           SKY/WX    TMP DP  RH WIND       PRES   REMARKS
WINCHESTER*    CLOUDY    52  39  62 NW5       30.01R
FRONT ROYAL*   CLOUDY    48  45  87 CALM      30.00R
LURAY*         RAIN      50  50 100 CALM      30.00R
NEW MARKET*    CLOUDY    49  47  95 CALM      29.98S
STAUNTON*      CLOUDY    51  48  87 CALM      30.00S
WAYNESBORO*    CLOUDY    51  47  88 SW3       30.00R

$$

WVZ021-048>050-054>055-282300-
EASTERN WEST VIRGINIA PANHANDLE

CITY           SKY/WX    TMP DP  RH WIND       PRES   REMARKS
MARTINSBURG    CLOUDY    52  39  61 N8        30.02R
PETERSBURG*    CLOUDY    53  41  63 N6        30.01S

$$

VAZ036>039-050-282300-
CENTRAL FOOTHILLS

CITY           SKY/WX    TMP DP  RH WIND       PRES   REMARKS
CHARLOTTESVILL LGT RAIN  49  44  83 E5        30.00S
CULPEPER*      RAIN      50  48  93 CALM      30.01F
ORANGE*        LGT RAIN  50  46  87 CALM      30.02S
GORDONSVILLE*  CLOUDY    48  47  96 CALM      30.00S
WARRENTON*     RAIN      50  50 100 CALM      30.01S

$$

VAZ055>057-282300-
NORTH AND CENTRAL PIEDMONT

CITY           SKY/WX    TMP DP  RH WIND       PRES   REMARKS
FREDERICKSBRG* LGT RAIN  51  51 100 CALM      30.01R
STAFFORD*      LGT RAIN  50  32  49 CALM      30.05R

$$

NCZ024-NYZ072-PAZ021-071-VAZ022-071-282300-
OTHER REGIONAL OBSERVATIONS

CITY           SKY/WX    TMP DP  RH WIND       PRES   REMARKS
NEW YORK CITY  CLOUDY    51  39  63 VRB6      29.97R
PHILADELPHIA   CLOUDY    55  41  59 NW8       29.98R
PITTSBURGH     CLOUDY    37  30  75 W7        30.07R
ROANOKE        CLOUDY    53  47  79 SW6       30.02S
RICHMOND       LGT RAIN  57  50  77 W6        30.02R
RALEIGH        CLOUDY    59  55  87 SW7       30.04R

$$

ANZ530>537-282300-
MARINE OBSERVATIONS

STATION/POSITION TIME  TEMP    WIND        PRES
                       AIR SEA DIR/SP/G
                 (UTC) (F)     (DEG/KT/KT) (MB)
THOMAS PT LIGHT  2200   47 43  190/  8/  9 1017.4R
BALT KEY BRIDGE  2200   54     190/  4/  4 1015.4R
COVE POINT       2200   53     310/  4/  5 1016.2S
LEWISETTA        2200   51 45     CALM     1015.8R
SOLOMONS ISLAND  2200      44                N/A
PINEY POINT      2200          340/  6/  6   N/A

$$



USA.gov is the U.S. government's official web portal to all federal, state and local government web resources and services.